Weather History for Chickasha, OK

Change the Weather History Date:

Monday, August 18, 2014

  Actual Average Record
Temperature  
Mean Temperature 83 °F -  
Max Temperature 98 °F 94 °F 104 °F (1956)
Min Temperature 68 °F 70 °F 62 °F (1981)
Cooling Degree Days 18    
Growing Degree Days 33 (Base 50)    
Moisture  
Dew Point 67 °F    
Average Humidity 61    
Maximum Humidity 100    
Minimum Humidity 30    
Precipitation  
Precipitation 0.00 in - - ()
Sea Level Pressure  
Sea Level Pressure 29.90 in    
Wind  
Wind Speed 8 mph (SSE)    
Max Wind Speed 22 mph    
Max Gust Speed 32 mph    
Visibility 10 miles    
Events      
Averages and records for this station are not official NWS values.
T = Trace of Precipitation, MM = Missing Value Source: NWS Daily Summary

Daily Weather History Graph

Daily Weather History Graph

Search for Another Location

Airport:

Trip Planner

Search our weather history database for the weather conditions in past years. The results will help you decide how hot, cold, wet, or windy it might be!

Date:

Astronomy

Aug. 18, 2014 Rise Set
Actual Time 6:54 AM CDT 8:16 PM CDT
Civil Twilight 6:27 AM CDT 8:43 PM CDT
Nautical Twilight 5:55 AM CDT 9:15 PM CDT
Astronomical Twilight 5:22 AM CDT 9:48 PM CDT
Moon 1:05 AM CDT (8/18) 3:17 PM CDT (8/18)
Length of Visible Light 14h 15m
Length of Day
13h 22m
Last Quarter, 38% of the Moon is Illuminated
Aug 18
Last Quarter
Aug 25
New
Sep 2
First Quarter
Sep 8
Full
Sep 15
Last Quarter

Hourly Weather History & Observations

Time (CDT) Temp. Heat Index Dew Point Humidity Pressure Visibility Wind Dir Wind Speed Gust Speed Precip Events Conditions
12:15 AM 77.0 °F - 71.6 °F 83% 29.94 in 10.0 mi SE 6.9 mph - N/A   Scattered Clouds
12:35 AM 77.0 °F - 69.8 °F 78% 29.94 in 10.0 mi SE 4.6 mph - N/A   Mostly Cloudy
12:55 AM 77.0 °F - 71.6 °F 83% 29.94 in 10.0 mi SE 5.8 mph - N/A   Mostly Cloudy
1:15 AM 77.0 °F - 71.6 °F 83% 29.94 in 10.0 mi SSE 6.9 mph - N/A   Mostly Cloudy
1:35 AM 77.0 °F - 71.6 °F 83% 29.94 in 10.0 mi SSE 6.9 mph - N/A   Mostly Cloudy
1:55 AM 75.2 °F - 71.6 °F 89% 29.93 in 10.0 mi SE 4.6 mph - N/A   Mostly Cloudy
2:15 AM 73.4 °F - 69.8 °F 88% 29.92 in 10.0 mi SSE 5.8 mph - N/A   Mostly Cloudy
2:35 AM 73.4 °F - 69.8 °F 88% 29.92 in 10.0 mi SSE 4.6 mph - N/A   Scattered Clouds
2:55 AM 73.4 °F - 71.6 °F 94% 29.92 in 10.0 mi SSE 4.6 mph - N/A   Clear
3:15 AM 73.4 °F - 71.6 °F 94% 29.92 in 10.0 mi Calm Calm - N/A   Clear
3:35 AM 73.4 °F - 71.6 °F 94% 29.91 in 10.0 mi Calm Calm - N/A   Clear
3:55 AM 73.4 °F - 71.6 °F 94% 29.90 in 10.0 mi SSE 4.6 mph - N/A   Clear
4:15 AM 71.6 °F - 69.8 °F 94% 29.90 in 10.0 mi Calm Calm - N/A   Clear
4:35 AM 71.6 °F - 69.8 °F 94% 29.90 in 10.0 mi Calm Calm - N/A   Clear
4:55 AM 71.6 °F - 69.8 °F 94% 29.90 in 10.0 mi Calm Calm - N/A   Clear
5:15 AM 69.8 °F - 68.0 °F 94% 29.91 in 10.0 mi Calm Calm - N/A   Clear
5:35 AM 68.0 °F - 68.0 °F 100% 29.94 in 10.0 mi NE 17.3 mph 21.9 mph N/A   Clear
5:55 AM 73.4 °F - 69.8 °F 88% 29.95 in 10.0 mi ENE 9.2 mph - N/A   Scattered Clouds
6:15 AM 73.4 °F - 69.8 °F 88% 29.94 in 10.0 mi East 4.6 mph - N/A   Clear
6:35 AM 71.6 °F - 69.8 °F 94% 29.95 in 10.0 mi East 5.8 mph - N/A   Scattered Clouds
6:55 AM 73.4 °F - 69.8 °F 88% 29.96 in 10.0 mi East 4.6 mph - N/A   Clear
7:15 AM 73.4 °F - 69.8 °F 88% 29.97 in 10.0 mi East 9.2 mph - N/A   Clear
7:35 AM 73.4 °F - 68.0 °F 83% 29.95 in 10.0 mi ESE 5.8 mph - N/A   Clear
7:55 AM 75.2 °F - 68.0 °F 78% 29.96 in 10.0 mi ESE 5.8 mph - N/A   Clear
8:15 AM 77.0 °F - 68.0 °F 74% 29.95 in 10.0 mi SE 6.9 mph - N/A   Clear
8:35 AM 77.0 °F - 68.0 °F 74% 29.95 in 10.0 mi SE 9.2 mph - N/A   Clear
8:55 AM 78.8 °F - 69.8 °F 74% 29.95 in 10.0 mi SSE 10.4 mph - N/A   Clear
9:15 AM 80.6 °F 83.9 °F 69.8 °F 70% 29.94 in 10.0 mi South 10.4 mph - N/A   Clear
9:35 AM 80.6 °F 83.9 °F 69.8 °F 70% 29.94 in 10.0 mi South 11.5 mph - N/A   Clear
9:55 AM 82.4 °F 86.3 °F 69.8 °F 66% 29.92 in 10.0 mi South 10.4 mph - N/A   Clear
10:15 AM 87.8 °F 93.8 °F 71.6 °F 58% 29.92 in 10.0 mi South 10.4 mph 16.1 mph N/A   Clear
10:35 AM 89.6 °F 94.7 °F 69.8 °F 52% 29.92 in 10.0 mi SSW 11.5 mph 17.3 mph N/A   Clear
10:55 AM 89.6 °F 93.4 °F 68.0 °F 49% 29.92 in 10.0 mi SSW 11.5 mph 17.3 mph N/A   Clear
11:15 AM 89.6 °F 93.4 °F 68.0 °F 49% 29.92 in 10.0 mi SW 12.7 mph - N/A   Clear
11:35 AM 95.0 °F 101.3 °F 69.8 °F 44% 29.92 in 10.0 mi SW 10.4 mph 16.1 mph N/A   Clear
11:55 AM 95.0 °F 101.3 °F 69.8 °F 44% 29.91 in 10.0 mi SSW 13.8 mph 19.6 mph N/A   Clear
12:15 PM 95.0 °F 101.3 °F 69.8 °F 44% 29.91 in 10.0 mi SSW 10.4 mph 20.7 mph N/A   Clear
12:35 PM 95.0 °F 99.5 °F 68.0 °F 41% 29.91 in 10.0 mi WSW 11.5 mph - N/A   Clear
12:55 PM 95.0 °F 99.5 °F 68.0 °F 41% 29.90 in 10.0 mi SSW 11.5 mph 18.4 mph N/A   Clear
1:15 PM 96.8 °F 101.8 °F 68.0 °F 39% 29.90 in 10.0 mi SW 15.0 mph 18.4 mph N/A   Clear
1:35 PM 96.8 °F 101.8 °F 68.0 °F 39% 29.89 in 10.0 mi SW 12.7 mph 20.7 mph N/A   Clear
1:55 PM 96.8 °F 100.7 °F 66.2 °F 37% 29.89 in 10.0 mi SW 13.8 mph 18.4 mph N/A   Clear
2:15 PM 96.8 °F 101.8 °F 68.0 °F 39% 29.88 in 10.0 mi SW 11.5 mph 18.4 mph N/A   Clear
2:35 PM 98.6 °F 102.8 °F 66.2 °F 35% 29.87 in 10.0 mi SSW 15.0 mph 19.6 mph N/A   Clear
2:55 PM 98.6 °F 101.0 °F 64.4 °F 32% 29.86 in 10.0 mi SSW 11.5 mph - N/A   Clear
3:15 PM 98.6 °F 101.0 °F 64.4 °F 32% 29.86 in 10.0 mi SSW 10.4 mph 19.6 mph N/A   Clear
3:35 PM 98.6 °F 101.0 °F 64.4 °F 32% 29.86 in 10.0 mi SW 10.4 mph 21.9 mph N/A   Clear
3:55 PM 98.6 °F 101.0 °F 64.4 °F 32% 29.85 in 10.0 mi SSW 10.4 mph 17.3 mph N/A   Clear
4:15 PM 98.6 °F 100.0 °F 62.6 °F 30% 29.84 in 10.0 mi SW 9.2 mph - N/A   Clear
4:35 PM 98.6 °F 100.0 °F 62.6 °F 30% 29.83 in 10.0 mi SW 8.1 mph 16.1 mph N/A   Clear
4:55 PM 98.6 °F 100.0 °F 62.6 °F 30% 29.82 in 10.0 mi South 11.5 mph 16.1 mph N/A   Scattered Clouds
5:15 PM 98.6 °F 100.0 °F 62.6 °F 30% 29.82 in 10.0 mi SSW 10.4 mph - N/A   Scattered Clouds
5:35 PM 98.6 °F 100.0 °F 62.6 °F 30% 29.81 in 10.0 mi SSW 8.1 mph - N/A   Clear
5:55 PM 98.6 °F 100.0 °F 62.6 °F 30% 29.80 in 10.0 mi SSW 11.5 mph - N/A   Clear
6:15 PM 98.6 °F 101.0 °F 64.4 °F 32% 29.81 in 10.0 mi SW 6.9 mph - N/A   Clear
6:35 PM 96.8 °F 99.0 °F 64.4 °F 34% 29.81 in 10.0 mi South 11.5 mph - N/A   Clear
6:55 PM 96.8 °F 99.0 °F 64.4 °F 34% 29.82 in 10.0 mi SSW 6.9 mph - N/A   Clear
7:15 PM 96.8 °F 99.0 °F 64.4 °F 34% 29.82 in 10.0 mi South 9.2 mph - N/A   Scattered Clouds
7:35 PM 95.0 °F 96.0 °F 62.6 °F 34% 29.83 in 10.0 mi South 6.9 mph - N/A   Scattered Clouds
7:55 PM 95.0 °F 97.0 °F 64.4 °F 36% 29.83 in 10.0 mi SSW 5.8 mph - N/A   Scattered Clouds
8:15 PM 91.4 °F 92.1 °F 62.6 °F 38% 29.85 in 10.0 mi South 5.8 mph - N/A   Clear
8:35 PM 89.6 °F 90.1 °F 62.6 °F 40% 29.87 in 10.0 mi NE 10.4 mph - N/A   Mostly Cloudy
8:55 PM 82.4 °F 83.4 °F 62.6 °F 51% 29.90 in 10.0 mi NE 21.9 mph 29.9 mph N/A   Mostly Cloudy
9:15 PM 78.8 °F - 64.4 °F 61% 29.92 in 10.0 mi NE 21.9 mph 32.2 mph N/A   Mostly Cloudy
9:35 PM 77.0 °F - 64.4 °F 65% 29.94 in 10.0 mi ENE 18.4 mph 23.0 mph N/A   Mostly Cloudy
9:55 PM 77.0 °F - 68.0 °F 74% 29.94 in 10.0 mi East 19.6 mph 25.3 mph N/A   Scattered Clouds
10:15 PM 77.0 °F - 68.0 °F 74% 29.95 in 10.0 mi East 17.3 mph 23.0 mph N/A   Clear
10:35 PM 77.0 °F - 68.0 °F 74% 29.95 in 10.0 mi East 19.6 mph 31.1 mph N/A   Clear
11:15 PM 78.8 °F - 62.6 °F 57% 29.92 in 10.0 mi East 12.7 mph 17.3 mph N/A   Clear
11:55 PM 78.8 °F - 60.8 °F 54% 29.91 in 10.0 mi SSE 9.2 mph - N/A   Clear